Location: Banios
(43.0451°N, 0.2335°E)
Time: 21:12:13
(UTC+00:00)

IMS-1 - Visible Passes

Search period start: 19 September 2021 00:00
Search period end: 29 September 2021 00:00
Orbit: 602 x 621 km, 97.7° (Epoch: 19 September)

Date Brightness Start Highest point End Pass type
(mag) Time Alt. Az. Time Alt. Az. Time Alt. Az.
19 Sep 8.4 03:33:35 10° NNE 03:37:41 47° E 03:40:18 20° SSE visible
19 Sep 9.1 05:10:34 10° NNW 05:13:17 17° WNW 05:15:59 10° WSW visible
20 Sep 7.7 03:48:09 10° NNE 03:52:23 69° E 03:55:02 22° S visible
21 Sep 7.4 04:02:48 10° N 04:07:04 81° WNW 04:09:46 22° SSW visible
22 Sep 10.4 02:43:21 10° ENE 02:45:25 13° E 02:47:28 10° ESE visible
22 Sep 7.6 04:17:33 10° N 04:21:43 55° WNW 04:24:30 20° SW visible
23 Sep 10.0 02:57:11 10° NE 03:00:14 19° E 03:02:14 14° SE visible
23 Sep 8.0 04:32:23 10° N 04:36:20 38° WNW 04:39:14 16° SW visible
24 Sep 9.4 03:11:23 10° NE 03:15:01 27° E 03:16:58 19° SE visible
24 Sep 8.5 04:47:18 10° N 04:50:54 27° WNW 04:53:57 13° WSW visible
25 Sep 8.8 03:25:46 10° NNE 03:29:46 38° E 03:31:41 25° SSE visible
25 Sep 8.9 05:02:23 10° NNW 05:05:27 20° WNW 05:08:32 10° WSW visible
26 Sep 8.0 03:40:17 10° NNE 03:44:29 57° E 03:46:24 29° SSE visible
26 Sep 9.3 05:17:42 10° NNW 05:19:58 14° WNW 05:22:15 10° W visible
27 Sep 7.5 03:54:54 10° NNE 03:59:10 84° ESE 04:01:07 32° S visible
28 Sep 10.5 02:36:16 10° ENE 02:37:25 11° E 02:38:33 10° ESE visible
28 Sep 7.4 04:09:35 10° N 04:13:49 67° WNW 04:15:50 30° SSW visible
